Voltar ao catálogo

STARLINK-6144

AtivoComunicaçõesVLEO
NORAD 56894·PAYLOAD·🇺🇸 United States

Lançado Jun 12, 2023 de Cape Canaveral Space Force Station

Loading…

Próximas Passagens (próximas 24 horas)

TLE

AtualizadoSource: CelesTrak SupGP

Época: Sep 14, 2026, 21:38 UTC

1 56894C 23083U   26257.90187500  .00014669  00000+0  53138-3 0  2575
2 56894  43.0016 100.0593 0001366 268.5181 236.5175 15.27566701    13

Acompanhe STARLINK-6144 em tempo real com AllMySat

Download on the App Store